Regional Weather Roundup
Issued by NWS

Home | Current Version | Previous Version | Text Only | Print | Product List | Glossary Off
Versions: 1 2 3 4 5 6 7 8 9 10 11 12 13 14 15 16 17 18 19 20 21 22 23 24 25 26 27 28 29 30 31 32 33 34 35 36 37 38 39 40 41 42 43 44 45 46 47 48 49 50

000
ASUS45 KBOU 300007
RWRCO

WEATHER ROUNDUP FOR COLORADO
NATIONAL WEATHER SERVICE DENVER/BOULDER CO
600 PM MDT SAT AUG 29 2015

NOTE: "FAIR" INDICATES FEW OR NO CLOUDS BELOW 12000 FEET WITH NO
SIGNIFICANT WEATHER AND/OR OBSTRUCTIONS TO VISIBILITY.

COZ001>005-013-030-031-300100-
...NORTHWEST COLORADO...

CITY           SKY/WX    TMP DP  RH WIND       PRES   REMARKS
CRAIG          MOSUNNY   86  36  16 SW14      30.17F
HAYDEN         NOT AVBL
MEEKER         SUNNY     83  33  16 S7        30.18F
MOUNT WERNER   NOT AVBL
STEAMBOAT SPGS SUNNY     82  32  16 SW5       30.23F
WALDEN         SUNNY     73  23  15 W6        30.34F
$$

COZ006>008-011-300100-
...WEST CENTRAL VALLEYS...

CITY           SKY/WX    TMP DP  RH WIND       PRES   REMARKS
GRAND JUNCTION SUNNY     90  35  14 VRB3      30.06F
MONTROSE       SUNNY     89  35  14 N7        30.16F
EAGLE          MOSUNNY   82  39  21 W15       30.22F
RIFLE          SUNNY     89  35  14 W14       30.12F
DELTA          SUNNY     93  33  11 SE7       30.09F
NUCLA          SUNNY     88  28  11 SW3       30.20F
$$

COZ017>023-064>068-300100-
...SOUTHWEST COLORADO...

CITY           SKY/WX    TMP DP  RH WIND       PRES   REMARKS
DURANGO        MOSUNNY   83  37  19 NW9       30.25F
CORTEZ         SUNNY     83  40  21 S5        30.17F
PAGOSA SPRINGS MOSUNNY   81  28  14 SW8       30.33F
TELLURIDE      PTSUNNY   73  37  27 W9        30.47S
WOLF CREEK PAS PTSUNNY   57  36  44 SW12G22   30.69F
$$

COZ009-010-012-014-032>034-037-058>063-300100-
...CENTRAL COLORADO...

CITY           SKY/WX    TMP DP  RH WIND       PRES   REMARKS
ASPEN          MOSUNNY   80  37  21 NW6       30.31S
BUENA VISTA    MOSUNNY   80  34  19 SE8G16    30.32S
COPPER MTN     MOSUNNY   61  32  33 W8        30.68S
BERTHOUD PASS  PTSUNNY   52  39  62 MISG      30.74S
COTTONWOOD PAS MOSUNNY   72  32  23 SE5       30.48S
GUNNISON       PTSUNNY   79  39  24 N13       30.33F
KREMMLING      MOSUNNY   82  21  10 W10       30.28F
LEADVILLE      MOSUNNY   68  33  27 W9        30.47F
MONARCH PASS   MOSUNNY   61  34  36 W9        30.77F
SALIDA         MOSUNNY   81  39  22 E10G17    30.35F
SUNLIGHT       MOSUNNY   61  41  48 CALM      30.60F
WILKERSON PASS MOSUNNY   63  34  34 SW6       30.62F
$$

COZ069>075-300100-
...SAN LUIS VALLEY/SANGRE DE CRISTO MOUNTAINS...

CITY           SKY/WX    TMP DP  RH WIND       PRES   REMARKS
ALAMOSA        SUNNY     76  38  25 S7        30.31F
LA VETA PASS   MOSUNNY   59  37  44 NE8       30.55S
SAGUACHE       MOSUNNY   77  39  25 S5        30.34F
$$

COZ035-036-038>040-300100-
...NORTHERN COLORADO FRONT RANGE...

CITY           SKY/WX    TMP DP  RH WIND       PRES   REMARKS
DENVER INTL AP MOSUNNY   88  41  19 S15       30.12F
DMNS CITY PARK   N/A     86  43  22 E10G20    30.11S
AURORA         MOSUNNY   86  44  23 SE14      30.15S
FRONT RANGE AP MOSUNNY   86  39  19 SE14G20   30.15S
ERIE MUNI ARPT MOSUNNY   90  30  12 SE6       30.09S
BOULDER MUN AP MOSUNNY   90  37  15 E3        30.10F
CENTENNIAL     MOSUNNY   83  45  26 S20       30.16F
BROOMFIELD     MOSUNNY   90  36  14 E6        30.15F
FORT COLLINS   SUNNY     90  39  17 SE12      30.06
LONGMONT       SUNNY     91  39  16 CALM      30.10F
$$

COZ041-046-047-076>085-087-088-300100-
...PIKES PEAK/PALMER DIVIDE AND SOUTHERN FOOTHILLS...

CITY           SKY/WX    TMP DP  RH WIND       PRES   REMARKS
COLO. SPRINGS  MOSUNNY   82  40  22 SE18      30.23F
A. F. ACADEMY  SUNNY     80  41  25 SE18      30.23F
ELLICOTT       SUNNY    N/A N/A N/A S14       30.23F
FALCON         SUNNY     76  41  28 MISG      30.30S
FORT CARSON    SUNNY     82  43  25 SE15      30.20S
LIMON          SUNNY     80  41  24 S12       30.19F
MONUMENT HILL  SUNNY     75  39  27 S20       30.28S
TRINIDAD       MOSUNNY   84  39  20 SE10      30.20F
$$

COZ042>045-048>051-090-091-300100-
...NORTHEAST COLORADO...

CITY           SKY/WX    TMP DP  RH WIND       PRES   REMARKS
GREELEY ARPT   SUNNY     88  46  23 E6        30.08F
AKRON          SUNNY     87  41  19 S13       30.12S
BURLINGTON     SUNNY     83  44  25 S10       30.13F
WRAY           CLOUDY    91  37  15 SE8       30.07S
STERLING       SUNNY     90  46  22 S3        30.04F
HOLYOKE        SUNNY     86  46  25 S7        30.07S
FORT MORGAN    SUNNY     86  46  24 SE6       30.09F
$$

COZ086-089-092>099-300100-
...SOUTHEAST COLORADO...

CITY           SKY/WX    TMP DP  RH WIND       PRES   REMARKS
PUEBLO         SUNNY     90  39  16 SE14      30.10F
LA JUNTA       SUNNY     90  38  16 E13       30.11F
LAMAR          SUNNY     86  43  22 SE10      30.08F HAZE
SPRINGFIELD    NOT AVBL
$$



USA.gov is the U.S. government's official web portal to all federal, state and local government web resources and services.